This demonstration page uses our WeatherBlox Daily Observations layout. Learn more.

Left ArrowRight Arrow

39.51506, -84.39828

Hourly Observations for August 29, 2020

Temp ( °F °C ) Dew Point ( °F °C ) Humidity (%) Winds ( mph kmh ) Pressure ( in mb ) Visibility ( mi km ) Precip ( " mm )
12:15 am 00:15 Partly Cloudy 74 23.4 73 22.5 95 95 S 9 15 29.7 1006 10 16.0934 0 0
12:35 am 00:35 Clear 73 23 72 22.3 96 96 SSW 9 15 29.71 1006 10 16.0934 0 0
12:55 am 00:55 Partly Cloudy 73 22.6 72 22.1 97 97 WSW 3 6 29.72 1006 10 16.0934 0 0
1:15 am 01:15 Partly Cloudy 72 22.2 71 21.4 95 95 WSW 3 6 29.72 1006 10 16.0934 0 0
1:35 am 01:35 Clear 72 22 70 21.3 96 96 WSW 3 6 29.72 1006 10 16.0934 0 0
1:55 am 01:55 Clear 71 21.5 70 21.1 98 98 Calm 29.71 1006 10 16.0934 0 0
2:15 am 02:15 Cloudy 71 21.4 70 21.2 99 99 Calm 29.7 1006 10 16.0934 0 0
2:35 am 02:35 Partly Cloudy 71 21.7 70 21.3 98 98 Calm 29.7 1006 10 16.0934 0 0
2:55 am 02:55 Clear 70 21.2 70 21.2 100 100 Calm 29.69 1005 10 16.0934 0 0
3:15 am 03:15 Clear 70 21 70 21 100 100 Calm 29.69 1005 7 11.26538 0 0
3:35 am 03:35 Clear 70 21 N/A N/A Calm 29.68 1005 10 16.0934 0 0
3:55 am 03:55 Clear with Mist and Fog 68 20 N/A N/A Calm 29.67 1005 3.5 5.63269 0 0
4:15 am 04:15 Hazy 68 20 N/A N/A Calm 29.67 1005 7 11.26538 0 0
4:35 am 04:35 Clear with Mist and Fog 68 20 N/A N/A Calm 29.67 1005 2.5 4.02335 0 0
4:55 am 04:55 Clear with Mist and Fog 68 20 N/A N/A Calm 29.66 1005 4 6.43736 0 0
5:15 am 05:15 Hazy 66 19 N/A N/A Calm 29.68 1005 5 8.0467 0 0
5:35 am 05:35 Partly Cloudy 68 20 N/A N/A Calm 29.67 1005 7 11.26538 0 0
5:55 am 05:55 Partly Cloudy 68 20 N/A N/A Calm 29.68 1005 10 16.0934 0 0
6:15 am 06:15 Cloudy 68 20 N/A N/A SSW 3 6 29.67 1005 10 16.0934 0 0
6:35 am 06:35 Cloudy 70 21 N/A N/A S 5 7 29.67 1005 10 16.0934 0 0
6:55 am 06:55 Cloudy 70 21 N/A N/A NNW 6 9 29.69 1005 10 16.0934 0 0
7:15 am 07:15 Cloudy 70 21 N/A N/A SW 3 6 29.69 1005 10 16.0934 0 0
7:35 am 07:35 Cloudy 70 21 N/A N/A WSW 3 6 29.69 1005 10 16.0934 0 0
7:55 am 07:55 Cloudy 70 21 N/A N/A Calm 29.7 1006 10 16.0934 0 0
8:15 am 08:15 Cloudy 70 21.3 70 21.3 100 100 Calm 29.7 1006 7 11.26538 0 0
8:35 am 08:35 Cloudy 71 21.5 71 21.4 99 99 NNW 3 6 29.71 1006 7 11.26538 0 0
8:55 am 08:55 Cloudy 71 21.8 71 21.6 99 99 WSW 3 6 29.71 1006 10 16.0934 0 0
9:15 am 09:15 Cloudy 72 22.1 71 21.8 98 98 SSW 7 11 29.71 1006 10 16.0934 0 0
9:35 am 09:35 Cloudy 73 22.7 72 22 96 96 SW 7 11 29.71 1006 10 16.0934 0 0
9:55 am 09:55 Cloudy 74 23.3 72 22 92 92 W 7 11 29.72 1006 10 16.0934 0 0
10:15 am 10:15 Cloudy 76 24.3 72 22.2 88 88 WSW 8 13 29.71 1006 10 16.0934 0 0
10:35 am 10:35 Mostly Cloudy 77 24.9 72 22.2 85 85 WSW 10 17 29.72 1007 10 16.0934 0 0
10:55 am 10:55 Cloudy 78 25.6 73 22.5 83 83 W 7 11 29.72 1006 10 16.0934 0 0
11:15 am 11:15 Partly Cloudy 80 26.7 71 21.8 75 75 W 9 15 29.72 1006 10 16.0934 0 0
11:35 am 11:35 Sunny 81 27.4 68 20.2 65 65 WNW 10 17 29.71 1006 10 16.0934 0 0
11:55 am 11:55 Mostly Cloudy 82 27.6 69 20.4 65 65 WNW 6 9 29.72 1006 10 16.0934 0 0
12:15 pm 12:15 Partly Cloudy 83 28.5 67 19.5 58 58 WNW 12 19 29.72 1006 10 16.0934 0 0
12:30 pm 12:30 Partly Cloudy 84 28.9 67 19.6 57 57 W 8 13 29.71 1006 10 16.0934 0 0
12:55 pm 12:55 Partly Cloudy 84 28.8 65 18.4 53 53 WNW 9 15 29.72 1007 10 16.0934 0 0
1:15 pm 13:15 Partly Cloudy 85 29.4 66 18.7 53 53 NW 16 26 29.72 1007 10 16.0934 0 0
1:35 pm 13:35 Partly Cloudy 85 29.4 66 19.1 54 54 W 10 17 29.73 1007 10 16.0934 0 0
1:55 pm 13:55 Mostly Cloudy 83 28.5 66 18.9 56 56 WNW 12 19 29.74 1007 10 16.0934 0 0
2:15 pm 14:15 Mostly Cloudy 83 28.1 66 18.9 57 57 NW 12 19 29.74 1007 10 16.0934 0 0
2:35 pm 14:35 Partly Cloudy 86 30.2 65 18.5 50 50 WNW 16 26 29.74 1007 10 16.0934 0 0
2:55 pm 14:55 Mostly Cloudy 84 28.7 64 17.7 51 51 NW 14 22 29.75 1007 10 16.0934 0 0
3:15 pm 15:15 Mostly Cloudy 84 28.8 64 17.9 52 52 WNW 13 20 29.74 1007 10 16.0934 0 0
3:35 pm 15:35 Mostly Cloudy 87 30.6 63 17.3 45 45 W 17 28 29.73 1007 10 16.0934 0 0
3:55 pm 15:55 Mostly Cloudy 85 29.5 62 16.7 46 46 WNW 16 26 29.74 1007 10 16.0934 0 0
4:15 pm 16:15 Partly Cloudy 84 29 61 16 45 45 NW 13 20 29.73 1007 10 16.0934 0 0
4:35 pm 16:35 Partly Cloudy 83 28.2 62 16.6 49 49 NW 15 24 29.74 1007 10 16.0934 0 0
4:55 pm 16:55 Sunny 83 28.5 62 16.4 48 48 W 12 19 29.75 1007 10 16.0934 0 0
5:15 pm 17:15 Sunny 84 29.1 62 16.7 47 47 WNW 13 20 29.73 1007 10 16.0934 0 0
5:35 pm 17:35 Partly Cloudy 82 27.9 62 16.5 50 50 WNW 13 20 29.74 1007 10 16.0934 0 0
5:55 pm 17:55 Mostly Cloudy 82 27.7 63 17 52 52 W 9 15 29.74 1007 10 16.0934 0 0
6:15 pm 18:15 Partly Cloudy 83 28.4 62 16.9 50 50 WNW 14 22 29.74 1007 10 16.0934 0 0
6:35 pm 18:35 Cloudy 82 27.7 62 16.8 51 51 NNW 10 17 29.75 1007 10 16.0934 0 0
6:55 pm 18:55 Mostly Cloudy 82 27.6 61 15.9 49 49 NW 10 17 29.75 1007 10 16.0934 0 0
7:15 pm 19:15 Sunny 80 26.7 61 16.3 53 53 NW 10 17 29.75 1007 10 16.0934 0 0
7:35 pm 19:35 Sunny 78 25.8 61 16.1 55 55 NNW 8 13 29.75 1007 10 16.0934 0 0
7:55 pm 19:55 Sunny 77 25 60 15.7 56 56 WNW 8 13 29.77 1008 10 16.0934 0 0
8:15 pm 20:15 Clear 76 24.5 59 15.2 56 56 NW 6 9 29.77 1008 10 16.0934 0 0
8:35 pm 20:35 Clear 75 23.9 60 15.5 59 59 WNW 5 7 29.79 1009 10 16.0934 0 0
8:55 pm 20:55 Clear 74 23.1 60 15.8 64 64 Calm 29.8 1009 10 16.0934 0 0
9:15 pm 21:15 Clear 73 23 61 15.9 64 64 NNW 3 6 29.8 1009 10 16.0934 0 0
9:35 pm 21:35 Clear 72 22.2 61 16.1 68 68 N 3 6 29.81 1009 10 16.0934 0 0
9:55 pm 21:55 Clear 72 22.3 61 16.1 68 68 NNW 5 7 29.81 1009 10 16.0934 0 0
10:15 pm 22:15 Clear 71 21.9 61 16 69 69 N 5 7 29.82 1010 10 16.0934 0 0
10:35 pm 22:35 Clear 70 21.2 61 15.9 72 72 N 3 6 29.83 1010 10 16.0934 0 0
10:55 pm 22:55 Clear 69 20.5 60 15.7 74 74 N 6 9 29.84 1011 10 16.0934 0 0
11:15 pm 23:15 Clear 68 20.1 60 15.4 74 74 NNW 5 7 29.84 1011 10 16.0934 0 0
11:35 pm 23:35 Clear 68 19.8 58 14.7 73 73 N 7 11 29.85 1011 10 16.0934 0 0
11:55 pm 23:55 Clear 67 19.4 58 14.2 72 72 NNW 3 6 29.86 1011 10 16.0934 0 0

Powered by AerisWeather